Location: Unspecified
(48.7971°N, 123.6320°W)
Time: 06:31:07
(UTC-07:00)

Okean 3 - Pass Details

Date: 27 June 2019
Orbit: 575 x 602 km, 82.5° (Epoch: 24 August)

Event Time Altitude Azimuth Distance (km) Brightness Sun altitude
Rises 03:06:06 0° 5° (N) 2,868 8.4 -13.9°
Reaches altitude 10° 03:09:20 10° 31° (NNE) 1,958 7.6 -13.7°
Maximum altitude 03:11:40 14° 63° (ENE) 1,696 6.6 -13.5°
Drops below altitude 10° 03:13:58 10° 96° (E) 1,946 6.4 -13.3°
Sets 03:17:09 0° 122° (ESE) 2,838 6.9 -13.1°
